STARLINK-33760, 63764

Orbit data source: Space-Track

STARLINK-33760, 63764 is a payload satellite owned by SpaceX/Seattle (US) in LEO that was launched on Tue, 29 Apr 2025 UTC via an FALCON 9 launch vehicle from the Air Force Eastern Test Range (AFETR). Payload-class satellites include a variety of spacecraft equipped with specific instruments for various scientific and technological missions. These include communications satellites like Starlink; space stations such as the ISS; scientific satellites like the Hubble; Earth observation satellites from companies like Planet Labs, Umbra, and HawkEye 360; GPS; miniature CubeSats for education and research; and military/defense satellites.

Loading next visibility...
Identifier
63764, 2025-089P
Orbit
LEO
Country
Flag of USUS
Related business
Manufacturer
SpaceX/Seattle
Mission
Operational Commercial Communications
Bus & Motor
STARLINK V2MO, Unknown motor
Mass
575 kg wet, ~530 kg dry
Launch date (UTC)
2025-04-29 (1 year ago)
Launch vehicle
FALCON 9
Launch site
Air Force Eastern Test Range (AFETR)
Object type
Payload
Rocket body
Debris
Shape & HBR
Box + 2 Pan, 17.7 m
Radar Cross Section
36.964 m², Large (>1 m²)

Expand to show TLE details & history
Last TLE update: 20 hours ago

TLE from 20 hours ago
0 STARLINK-33760
1 63764U 25089P   26171.06836235  .00009995  00000-0  37214-3 0  9992
2 63764  42.9998 187.1748 0001827 279.2151  80.8494 15.27588188 64613
Epoch: 2026-06-20T01:38Z
TLE epoch observation values (Epoch: 2026-06-20T01:38:26.507Z)
Latitude
0.00001°
Longitude
-105.72393°
Altitude
482.601 km
Speed
7.626 km/s
True Right ascension
12h 28m 41s
True Declination
0° 00' 00"
Sunlit
Object was in daylight at epoch
Visualization orbit readout
Latitude
Unknown
Longitude
Unknown
Altitude
Unknown
Speed
Unknown
Apparent Right ascension
Unknown
Apparent Declination
Unknown
Sunlit
N/A
Visualization observer readout
Local Sidereal Time
08:33:44
Azimuth
Unknown
Elevation
Unknown
Doppler factor
Unknown
Orbital elements
Apogee altitude
486.224 km
Perigee altitude
483.716 km
Semi-major axis
6,863.107 km
Eccentricity
0.00018
Inclination
42.9998°
RAAN
187.1748°
Arg. of periapsis
279.2151°
True anomaly
80.87007°
Mean anomaly
80.8494°
Eccentric anomaly
80.85974°
Mean motion
3.81735 °/min
Orbital period
94.31 mins
BSTAR
0.00037214
Loading maneuver chart data...
Computing Atmospheric mass density...
Loading historical data...
Loading historical data...
Loading historical data...
Loading historical data...
Loading historical data...
Loading historical data...
Loading historical data...

Documentation

Showing up to 5 results
|